Погода в Баучи

Нигерия     10°18′22″N   9°50′50″E
темп.,
°C
ветер,
м/с
пор.,
м/с
влажн.,
%
обл.,
%
осадки,
мм/ч
давл.,
гПа
погр.,
м
17 мая, вт
вт1701:00+28с113110 0.0 101111
04:00+27ююз114098 0.0 101111
07:00+26ююз0147100 0.0 101262
10:00+33в122439 0.0 1012953
13:00+37всв342172 0.0 10093759
16:00+35всв1224100 0.0 1006290
19:00+31ююв374161 0.0 1008212
22:00+24ююз487012 0.3 1012371
18 мая, ср
ср1801:00+24юз247453 0.3 1010124
04:00+25ююз2268100 0.0 100999
07:00+26ююз126618 0.0 101095
10:00+32ю32415 0.0 10101174
13:00+37вюв332156 0.0 10073573
16:00+31ссв3435100 0.2 1007391
19:00+27ю5956100 0.7 1008370
22:00+27ю235892 0.3 1011123
19 мая, чт
чт1901:00+26ю246260 0.3 1010117
04:00+26ю126675 0.0 100968
07:00+26ю2366100 0.0 1011182
10:00+32ююв3442100 0.0 10121302
13:00+36вюв563196 0.0 10093173
16:00+34вюв8732100 0.0 10062206
19:00+30юз1343100 0.2 1009126
22:00+25зсз2468100 2.1 1013241
20 мая, пт
пт2001:00+25зюз2269100 2.1 101191
04:00+25ююз2468100 0.0 1010149
07:00+26ююз256799 0.0 1012229
10:00+31ю234759 0.0 1013753
13:00+36вюв25299 0.0 10092685
16:00+35в353099 0.3 10071529
19:00+27юв226199 2.5 101181
22:00+27ю3463100 1.9 1012189
21 мая, сб
сб2101:00+27юз386698 1.9 1010295
04:00+27сз1166100 0.0 101047
07:00+27юз126452 0.0 1012113
10:00+33с22389 0.0 10121182
13:00+37ссв252626 0.0 10093721
16:00+37ссв8624100 0.1 10072714
19:00+25ююз4664100 2.8 1010261
22:00+25ююв3563100 2.1 1011164